GW4836 Weather Reports


Display with metric or nautical units.
time (UTC)temp
F
wind
direction
speed
MPH
gust
MPH
rain 1hr
in
rain 24hr
in
rain mn
in
humidity
%
barometer
mb
20260503023033 56 67 1.0 3.0 0.00 0.00 0.00 47 1015.5
20260503021512 57 77 0.0 0.0 0.00 0.00 0.00 44 1015.3
20260503020010 60 5 0.0 0.0 0.00 0.00 0.00 39 1015.4
20260503014510 62 345 1.0 4.0 0.00 0.00 0.00 37 1015.5
20260503013010 65 338 5.0 9.0 0.00 0.00 0.00 34 1015.6
20260503011509 64 63 7.0 13.0 0.00 0.00 0.00 35 1015.5
20260503010009 63 321 1.0 4.0 0.00 0.00 0.00 36 1015.8
20260503004509 63 49 1.0 5.0 0.00 0.00 0.00 37 1015.9
20260503003008 63 21 3.0 8.0 0.00 0.00 0.00 37 1016.1
20260503001507 64 24 2.0 8.0 0.00 0.00 0.00 36 1016.1
20260503000014 64 253 0.0 3.0 0.00 0.00 0.00 35 1016.2
20260502234508 64 256 2.0 8.0 0.00 0.00 0.00 36 1016.3
20260502233005 67 178 2.0 7.0 0.00 0.00 0.00 34 1016.3
20260502231505 66 144 1.0 8.0 0.00 0.00 0.00 35 1016.5
20260502230004 66 343 5.0 9.0 0.00 0.00 0.00 35 1016.7
20260502224504 67 155 0.0 7.0 0.00 0.00 0.00 35 1016.6
20260502223003 66 326 0.0 4.0 0.00 0.00 0.00 34 1017.1
20260502221502 68 219 3.0 7.0 0.00 0.00 0.00 33 1017.1
20260502220059 67 127 3.0 7.0 0.00 0.00 0.00 35 1017.3
20260502214555 64 127 0.0 4.0 0.00 0.00 0.00 38 1017.7
20260502213055 63 313 5.0 9.0 0.00 0.00 0.00 38 1017.8
20260502211556 63 12 5.0 10.0 0.00 0.00 0.00 38 1017.9
20260502210054 63 341 6.0 16.0 0.00 0.00 0.00 38 1018.1
20260502204603 63 355 5.0 10.0 0.00 0.00 0.00 38 1018.2
20260502203053 64 286 8.0 13.0 0.00 0.00 0.00 37 1018.3
20260502201551 63 25 5.0 33.0 0.00 0.00 0.00 40 1018.5
20260502200050 62 116 0.0 11.0 0.00 0.00 0.00 42 1018.7
20260502194546 59 67 6.0 14.0 0.00 0.00 0.00 43 1018.7
20260502193046 59 56 8.0 13.0 0.00 0.00 0.00 44 1018.9
20260502191556 59 56 6.0 12.0 0.00 0.00 0.00 44 1019.2
20260502190045 59 41 6.0 13.0 0.00 0.00 0.00 44 1019.2
20260502184545 59 46 4.0 13.0 0.00 0.00 0.00 43 1019.1
20260502183044 59 28 6.0 12.0 0.00 0.00 0.00 43 1019.2
20260502181550 59 331 9.0 14.0 0.00 0.00 0.00 43 1019.1
20260502163040 60 355 10.0 16.0 0.00 0.00 0.00 42 1019.3
20260502161538 60 46 9.0 16.0 0.00 0.00 0.00 41 1019.2
20260502151540 58 39 8.0 14.0 0.00 0.00 0.00 44 1019.1
20260502123012 47 19 10.0 16.0 0.00 0.00 0.00 56 1018.4
20260502121513 47 15 9.0 16.0 0.00 0.00 0.00 56 1018.1
20260502114508 46 46 9.0 15.0 0.00 0.00 0.00 57 1017.8
20260502113005 47 62 11.0 18.0 0.00 0.00 0.00 55 1017.7
20260502111502 47 45 11.0 15.0 0.00 0.00 0.00 54 1017.4
20260502110059 48 22 7.0 14.0 0.00 0.00 0.00 52 1017.2
20260502104557 49 57 11.0 18.0 0.00 0.00 0.00 50 1017.0
20260502103054 49 35 8.0 15.0 0.00 0.00 0.00 49 1016.8
20260502101553 50 46 11.0 17.0 0.00 0.00 0.00 48 1016.5
20260502071532 54 51 3.0 6.0 0.00 0.00 0.00 35 1015.3
20260502070029 55 43 4.0 8.0 0.00 0.00 0.00 34 1015.3
20260502064531 55 37 3.0 6.0 0.00 0.00 0.00 33 1015.3
20260502063024 54 15 3.0 6.0 0.00 0.00 0.00 35 1015.4
20260502061521 52 32 4.0 10.0 0.00 0.00 0.00 37 1015.4
20260502060018 52 18 6.0 10.0 0.00 0.00 0.00 38 1015.2
20260502054518 53 334 7.0 11.0 0.00 0.00 0.00 37 1015.2
20260502053017 53 342 5.0 9.0 0.00 0.00 0.00 35 1015.4
20260502051517 54 331 7.0 10.0 0.00 0.00 0.00 34 1015.3
20260502050015 54 323 9.0 12.0 0.00 0.00 0.00 33 1015.2
20260502044515 52 336 5.0 9.0 0.00 0.00 0.00 35 1015.2
20260502043017 52 335 5.0 9.0 0.00 0.00 0.00 33 1015.2
20260502041518 52 336 4.0 5.0 0.00 0.00 0.00 32 1015.2
20260502040014 53 331 3.0 4.0 0.00 0.00 0.00 30 1015.2
20260502034513 55 337 2.0 5.0 0.00 0.00 0.00 28 1015.1
20260502033013 57 315 3.0 8.0 0.00 0.00 0.00 27 1015.0
20260502031512 55 355 2.0 3.0 0.00 0.00 0.00 28 1014.8
20260502030020 58 314 3.0 4.0 0.00 0.00 0.00 25 1014.7
20260502024510 60 299 2.0 4.0 0.00 0.00 0.00 23 1014.5